Meteo

Condividi:

Previsioni per il volo, messo gentilmente a disposizione da www.datameteo.com

per info sul servizio, contattare info@datameteo.it


Metar LIMZ

Available data for LIMZ from the past 2 hours
LEVALDIGI
TAF
TAF LIMZ 241700Z 2418/2518 VRB05KT 9999 SCT080

Gif Infrarosso


Gif Nuvole


Ultima immagine Infrarosso


Ultima immagine Nuvole


Gif Pioggia

Condividi: